Netzbetreibername:;Stadtwerke Gotha NETZ GmbH;;
Netz- oder Umspannebene:;Mittelspannung;;
Lastgangtyp:;Summe aller Einspeisungen;;
gesetzliche Grundlage:;� 17 Abs. 2 Nr. 6 StromNZV;;
Einheit:;kW;;
Betrachtungszeitraum:;01.01.2020;bis;31.12.2020
;;;
;;;
Datum;Wirkleistung FW+EEG;;
;[kW];;
;;;
01.01.2020 00:15;10.310;;
01.01.2020 00:30;10.311;;
01.01.2020 00:45;10.303;;
01.01.2020 01:00;10.288;;
01.01.2020 01:15;10.292;;
01.01.2020 01:30;10.297;;
01.01.2020 01:45;10.291;;
01.01.2020 02:00;10.272;;
01.01.2020 02:15;10.300;;
01.01.2020 02:30;10.288;;
01.01.2020 02:45;10.300;;
01.01.2020 03:00;10.299;;
01.01.2020 03:15;10.310;;
01.01.2020 03:30;10.317;;
01.01.2020 03:45;10.328;;
01.01.2020 04:00;10.307;;
01.01.2020 04:15;10.307;;
01.01.2020 04:30;10.306;;
01.01.2020 04:45;10.327;;
01.01.2020 05:00;10.310;;
01.01.2020 05:15;10.314;;
01.01.2020 05:30;10.308;;
01.01.2020 05:45;10.333;;
01.01.2020 06:00;10.322;;
01.01.2020 06:15;10.322;;
01.01.2020 06:30;10.351;;
01.01.2020 06:45;10.337;;
01.01.2020 07:00;10.325;;
01.01.2020 07:15;10.325;;
01.01.2020 07:30;10.342;;
01.01.2020 07:45;10.341;;
01.01.2020 08:00;10.311;;
01.01.2020 08:15;10.325;;
01.01.2020 08:30;10.345;;
01.01.2020 08:45;10.455;;
01.01.2020 09:00;10.536;;
01.01.2020 09:15;10.686;;
01.01.2020 09:30;10.846;;
01.01.2020 09:45;11.101;;
01.01.2020 10:00;11.356;;
01.01.2020 10:15;11.572;;
01.01.2020 10:30;11.800;;
01.01.2020 10:45;12.172;;
01.01.2020 11:00;12.739;;
01.01.2020 11:15;13.238;;
01.01.2020 11:30;13.574;;
01.01.2020 11:45;13.778;;
01.01.2020 12:00;13.887;;
01.01.2020 12:15;13.974;;
01.01.2020 12:30;13.161;;
01.01.2020 12:45;13.729;;
01.01.2020 13:00;13.906;;
01.01.2020 13:15;13.747;;
01.01.2020 13:30;13.512;;
01.01.2020 13:45;13.157;;
01.01.2020 14:00;12.640;;
01.01.2020 14:15;12.062;;
01.01.2020 14:30;11.670;;
01.01.2020 14:45;11.435;;
01.01.2020 15:00;11.231;;
01.01.2020 15:15;11.025;;
01.01.2020 15:30;10.810;;
01.01.2020 15:45;10.618;;
01.01.2020 16:00;10.444;;
01.01.2020 16:15;10.338;;
01.01.2020 16:30;10.298;;
01.01.2020 16:45;10.295;;
01.01.2020 17:00;10.273;;
01.01.2020 17:15;10.288;;
01.01.2020 17:30;10.289;;
01.01.2020 17:45;10.284;;
01.01.2020 18:00;10.244;;
01.01.2020 18:15;10.297;;
01.01.2020 18:30;10.289;;
01.01.2020 18:45;10.293;;
01.01.2020 19:00;10.276;;
01.01.2020 19:15;10.277;;
01.01.2020 19:30;10.265;;
01.01.2020 19:45;10.280;;
01.01.2020 20:00;10.272;;
01.01.2020 20:15;10.296;;
01.01.2020 20:30;10.303;;
01.01.2020 20:45;10.306;;
01.01.2020 21:00;10.299;;
01.01.2020 21:15;10.294;;
01.01.2020 21:30;10.304;;
01.01.2020 21:45;10.306;;
01.01.2020 22:00;10.286;;
01.01.2020 22:15;10.292;;
01.01.2020 22:30;10.328;;
01.01.2020 22:45;10.322;;
01.01.2020 23:00;10.310;;
01.01.2020 23:15;10.303;;
01.01.2020 23:30;10.340;;
01.01.2020 23:45;10.347;;
02.01.2020 00:00;10.323;;
02.01.2020 00:15;10.344;;
02.01.2020 00:30;10.341;;
02.01.2020 00:45;10.359;;
02.01.2020 01:00;10.331;;
02.01.2020 01:15;10.322;;
02.01.2020 01:30;10.329;;
02.01.2020 01:45;10.323;;
02.01.2020 02:00;10.305;;
02.01.2020 02:15;10.299;;
02.01.2020 02:30;10.307;;
02.01.2020 02:45;10.316;;
02.01.2020 03:00;10.306;;
02.01.2020 03:15;10.310;;
02.01.2020 03:30;10.313;;
02.01.2020 03:45;10.345;;
02.01.2020 04:00;10.312;;
02.01.2020 04:15;10.298;;
02.01.2020 04:30;10.265;;
02.01.2020 04:45;10.294;;
02.01.2020 05:00;10.289;;
02.01.2020 05:15;10.273;;
02.01.2020 05:30;10.273;;
02.01.2020 05:45;10.284;;
02.01.2020 06:00;10.146;;
02.01.2020 06:15;9.958;;
02.01.2020 06:30;7.225;;
02.01.2020 06:45;10.161;;
02.01.2020 07:00;10.231;;
02.01.2020 07:15;10.225;;
02.01.2020 07:30;10.240;;
02.01.2020 07:45;10.236;;
02.01.2020 08:00;10.225;;
02.01.2020 08:15;10.225;;
02.01.2020 08:30;10.218;;
02.01.2020 08:45;10.307;;
02.01.2020 09:00;10.240;;
02.01.2020 09:15;10.571;;
02.01.2020 09:30;10.795;;
02.01.2020 09:45;11.058;;
02.01.2020 10:00;11.168;;
02.01.2020 10:15;11.309;;
02.01.2020 10:30;11.669;;
02.01.2020 10:45;12.140;;
02.01.2020 11:00;12.294;;
02.01.2020 11:15;12.797;;
02.01.2020 11:30;13.607;;
02.01.2020 11:45;13.800;;
02.01.2020 12:00;13.903;;
02.01.2020 12:15;14.000;;
02.01.2020 12:30;14.019;;
02.01.2020 12:45;13.986;;
02.01.2020 13:00;13.885;;
02.01.2020 13:15;13.761;;
02.01.2020 13:30;13.525;;
02.01.2020 13:45;13.190;;
02.01.2020 14:00;12.663;;
02.01.2020 14:15;12.135;;
02.01.2020 14:30;11.694;;
02.01.2020 14:45;11.467;;
02.01.2020 15:00;11.239;;
02.01.2020 15:15;10.997;;
02.01.2020 15:30;10.790;;
02.01.2020 15:45;10.599;;
02.01.2020 16:00;10.401;;
02.01.2020 16:15;10.295;;
02.01.2020 16:30;10.279;;
02.01.2020 16:45;10.299;;
02.01.2020 17:00;10.259;;
02.01.2020 17:15;10.265;;
02.01.2020 17:30;10.294;;
02.01.2020 17:45;10.286;;
02.01.2020 18:00;10.313;;
02.01.2020 18:15;10.325;;
02.01.2020 18:30;10.290;;
02.01.2020 18:45;10.296;;
02.01.2020 19:00;10.288;;
02.01.2020 19:15;10.275;;
02.01.2020 19:30;10.300;;
02.01.2020 19:45;10.282;;
02.01.2020 20:00;10.280;;
02.01.2020 20:15;10.286;;
02.01.2020 20:30;10.293;;
02.01.2020 20:45;10.300;;
02.01.2020 21:00;10.272;;
02.01.2020 21:15;10.305;;
02.01.2020 21:30;10.306;;
02.01.2020 21:45;10.311;;
02.01.2020 22:00;10.305;;
02.01.2020 22:15;10.302;;
02.01.2020 22:30;10.343;;
02.01.2020 22:45;10.330;;
02.01.2020 23:00;10.316;;
02.01.2020 23:15;10.348;;
02.01.2020 23:30;10.404;;
02.01.2020 23:45;10.400;;
03.01.2020 00:00;10.370;;
03.01.2020 00:15;10.385;;
03.01.2020 00:30;10.401;;
03.01.2020 00:45;10.368;;
03.01.2020 01:00;10.355;;
03.01.2020 01:15;10.363;;
03.01.2020 01:30;10.371;;
03.01.2020 01:45;10.373;;
03.01.2020 02:00;10.351;;
03.01.2020 02:15;10.351;;
03.01.2020 02:30;10.358;;
03.01.2020 02:45;10.320;;
03.01.2020 03:00;10.298;;
03.01.2020 03:15;10.306;;
03.01.2020 03:30;10.300;;
03.01.2020 03:45;10.308;;
03.01.2020 04:00;10.288;;
03.01.2020 04:15;10.310;;
03.01.2020 04:30;10.320;;
03.01.2020 04:45;10.341;;
03.01.2020 05:00;10.327;;
03.01.2020 05:15;10.314;;
03.01.2020 05:30;10.310;;
03.01.2020 05:45;10.329;;
03.01.2020 06:00;10.312;;
03.01.2020 06:15;9.176;;
03.01.2020 06:30;10.276;;
03.01.2020 06:45;10.283;;
03.01.2020 07:00;10.296;;
03.01.2020 07:15;10.321;;
03.01.2020 07:30;10.170;;
03.01.2020 07:45;10.095;;
03.01.2020 08:00;10.265;;
03.01.2020 08:15;6.420;;
03.01.2020 08:30;5.859;;
03.01.2020 08:45;5.903;;
03.01.2020 09:00;5.899;;
03.01.2020 09:15;5.914;;
03.01.2020 09:30;5.955;;
03.01.2020 09:45;6.003;;
03.01.2020 10:00;9.336;;
03.01.2020 10:15;10.401;;
03.01.2020 10:30;10.545;;
03.01.2020 10:45;10.420;;
03.01.2020 11:00;10.501;;
03.01.2020 11:15;10.539;;
03.01.2020 11:30;10.681;;
03.01.2020 11:45;11.029;;
03.01.2020 12:00;11.030;;
03.01.2020 12:15;10.921;;
03.01.2020 12:30;10.845;;
03.01.2020 12:45;10.755;;
03.01.2020 13:00;10.817;;
03.01.2020 13:15;10.916;;
03.01.2020 13:30;10.859;;
03.01.2020 13:45;10.511;;
03.01.2020 14:00;10.429;;
03.01.2020 14:15;10.415;;
03.01.2020 14:30;10.653;;
03.01.2020 14:45;10.631;;
03.01.2020 15:00;10.638;;
03.01.2020 15:15;10.435;;
03.01.2020 15:30;10.431;;
03.01.2020 15:45;10.328;;
03.01.2020 16:00;10.284;;
03.01.2020 16:15;10.289;;
03.01.2020 16:30;10.336;;
03.01.2020 16:45;10.325;;
03.01.2020 17:00;10.307;;
03.01.2020 17:15;10.374;;
03.01.2020 17:30;10.314;;
03.01.2020 17:45;10.340;;
03.01.2020 18:00;10.310;;
03.01.2020 18:15;10.335;;
03.01.2020 18:30;10.328;;
03.01.2020 18:45;10.345;;
03.01.2020 19:00;10.371;;
03.01.2020 19:15;10.322;;
03.01.2020 19:30;10.328;;
03.01.2020 19:45;10.341;;
03.01.2020 20:00;10.323;;
03.01.2020 20:15;10.378;;
03.01.2020 20:30;10.400;;
03.01.2020 20:45;10.410;;
03.01.2020 21:00;10.386;;
03.01.2020 21:15;10.379;;
03.01.2020 21:30;10.372;;
03.01.2020 21:45;10.397;;
03.01.2020 22:00;10.361;;
03.01.2020 22:15;10.374;;
03.01.2020 22:30;10.387;;
03.01.2020 22:45;10.410;;
03.01.2020 23:00;10.353;;
03.01.2020 23:15;10.374;;
03.01.2020 23:30;10.386;;
03.01.2020 23:45;10.367;;
04.01.2020 00:00;10.372;;
04.01.2020 00:15;10.379;;
04.01.2020 00:30;10.398;;
04.01.2020 00:45;10.386;;
04.01.2020 01:00;10.385;;
04.01.2020 01:15;10.376;;
04.01.2020 01:30;10.379;;
04.01.2020 01:45;10.388;;
04.01.2020 02:00;10.368;;
04.01.2020 02:15;10.328;;
04.01.2020 02:30;10.308;;
04.01.2020 02:45;10.314;;
04.01.2020 03:00;10.307;;
04.01.2020 03:15;10.314;;
04.01.2020 03:30;10.309;;
04.01.2020 03:45;10.315;;
04.01.2020 04:00;10.301;;
04.01.2020 04:15;10.304;;
04.01.2020 04:30;10.296;;
04.01.2020 04:45;10.335;;
04.01.2020 05:00;10.323;;
04.01.2020 05:15;10.325;;
04.01.2020 05:30;10.316;;
04.01.2020 05:45;10.326;;
04.01.2020 06:00;10.319;;
04.01.2020 06:15;10.333;;
04.01.2020 06:30;10.317;;
04.01.2020 06:45;10.332;;
04.01.2020 07:00;10.304;;
04.01.2020 07:15;10.338;;
04.01.2020 07:30;10.329;;
04.01.2020 07:45;10.338;;
04.01.2020 08:00;10.311;;
04.01.2020 08:15;10.035;;
04.01.2020 08:30;10.244;;
04.01.2020 08:45;10.248;;
04.01.2020 09:00;10.277;;
04.01.2020 09:15;10.075;;
04.01.2020 09:30;9.961;;
04.01.2020 09:45;10.320;;
04.01.2020 10:00;10.408;;
04.01.2020 10:15;10.505;;
04.01.2020 10:30;10.567;;
04.01.2020 10:45;10.552;;
04.01.2020 11:00;10.615;;
04.01.2020 11:15;10.627;;
04.01.2020 11:30;10.715;;
04.01.2020 11:45;10.810;;
04.01.2020 12:00;10.753;;
04.01.2020 12:15;10.812;;
04.01.2020 12:30;10.887;;
04.01.2020 12:45;10.904;;
04.01.2020 13:00;10.934;;
04.01.2020 13:15;10.927;;
04.01.2020 13:30;10.877;;
04.01.2020 13:45;11.031;;
04.01.2020 14:00;10.790;;
04.01.2020 14:15;10.533;;
04.01.2020 14:30;10.454;;
04.01.2020 14:45;10.388;;
04.01.2020 15:00;10.487;;
04.01.2020 15:15;10.531;;
04.01.2020 15:30;10.373;;
04.01.2020 15:45;10.328;;
04.01.2020 16:00;10.301;;
04.01.2020 16:15;10.316;;
04.01.2020 16:30;10.313;;
04.01.2020 16:45;10.322;;
04.01.2020 17:00;10.306;;
04.01.2020 17:15;10.312;;
04.01.2020 17:30;10.312;;
04.01.2020 17:45;10.309;;
04.01.2020 18:00;10.309;;
04.01.2020 18:15;10.309;;
04.01.2020 18:30;10.316;;
04.01.2020 18:45;10.326;;
04.01.2020 19:00;10.289;;
04.01.2020 19:15;10.290;;
04.01.2020 19:30;10.300;;
04.01.2020 19:45;10.312;;
04.01.2020 20:00;10.293;;
04.01.2020 20:15;10.312;;
04.01.2020 20:30;10.318;;
04.01.2020 20:45;10.309;;
04.01.2020 21:00;10.291;;
04.01.2020 21:15;10.298;;
04.01.2020 21:30;10.315;;
04.01.2020 21:45;10.333;;
04.01.2020 22:00;10.302;;
04.01.2020 22:15;10.325;;
04.01.2020 22:30;10.318;;
04.01.2020 22:45;10.334;;
04.01.2020 23:00;10.344;;
04.01.2020 23:15;10.382;;
04.01.2020 23:30;10.394;;
04.01.2020 23:45;10.387;;
05.01.2020 00:00;10.371;;
05.01.2020 00:15;10.396;;
05.01.2020 00:30;10.388;;
05.01.2020 00:45;10.405;;
05.01.2020 01:00;10.368;;
05.01.2020 01:15;10.363;;
05.01.2020 01:30;10.380;;
05.01.2020 01:45;10.343;;
05.01.2020 02:00;10.281;;
05.01.2020 02:15;10.300;;
05.01.2020 02:30;10.302;;
05.01.2020 02:45;10.305;;
05.01.2020 03:00;10.287;;
05.01.2020 03:15;10.295;;
05.01.2020 03:30;10.308;;
05.01.2020 03:45;10.319;;
05.01.2020 04:00;10.299;;
05.01.2020 04:15;10.301;;
05.01.2020 04:30;10.327;;
05.01.2020 04:45;10.313;;
05.01.2020 05:00;10.305;;
05.01.2020 05:15;10.305;;
05.01.2020 05:30;10.321;;
05.01.2020 05:45;10.328;;
05.01.2020 06:00;10.317;;
05.01.2020 06:15;10.321;;
05.01.2020 06:30;10.305;;
05.01.2020 06:45;10.316;;
05.01.2020 07:00;10.293;;
05.01.2020 07:15;10.292;;
05.01.2020 07:30;10.294;;
05.01.2020 07:45;10.316;;
05.01.2020 08:00;10.288;;
05.01.2020 08:15;10.299;;
05.01.2020 08:30;10.305;;
05.01.2020 08:45;10.407;;
05.01.2020 09:00;10.572;;
05.01.2020 09:15;10.541;;
05.01.2020 09:30;10.589;;
05.01.2020 09:45;10.650;;
05.01.2020 10:00;11.141;;
05.01.2020 10:15;11.394;;
05.01.2020 10:30;11.081;;
05.01.2020 10:45;11.002;;
05.01.2020 11:00;10.963;;
05.01.2020 11:15;10.910;;
05.01.2020 11:30;10.896;;
05.01.2020 11:45;11.022;;
05.01.2020 12:00;11.038;;
05.01.2020 12:15;11.001;;
05.01.2020 12:30;11.620;;
05.01.2020 12:45;13.034;;
05.01.2020 13:00;12.710;;
05.01.2020 13:15;11.570;;
05.01.2020 13:30;11.235;;
05.01.2020 13:45;11.280;;
05.01.2020 14:00;11.198;;
05.01.2020 14:15;11.282;;
05.01.2020 14:30;11.576;;
05.01.2020 14:45;11.231;;
05.01.2020 15:00;10.829;;
05.01.2020 15:15;10.645;;
05.01.2020 15:30;10.462;;
05.01.2020 15:45;10.420;;
05.01.2020 16:00;10.351;;
05.01.2020 16:15;10.332;;
05.01.2020 16:30;10.316;;
05.01.2020 16:45;10.327;;
05.01.2020 17:00;10.318;;
05.01.2020 17:15;10.337;;
05.01.2020 17:30;10.382;;
05.01.2020 17:45;10.311;;
05.01.2020 18:00;10.294;;
05.01.2020 18:15;10.304;;
05.01.2020 18:30;10.302;;
05.01.2020 18:45;10.298;;
05.01.2020 19:00;10.286;;
05.01.2020 19:15;10.308;;
05.01.2020 19:30;10.324;;
05.01.2020 19:45;10.351;;
05.01.2020 20:00;10.364;;
05.01.2020 20:15;10.365;;
05.01.2020 20:30;10.317;;
05.01.2020 20:45;10.319;;
05.01.2020 21:00;10.306;;
05.01.2020 21:15;10.315;;
05.01.2020 21:30;10.332;;
05.01.2020 21:45;10.329;;
05.01.2020 22:00;10.319;;
05.01.2020 22:15;10.321;;
05.01.2020 22:30;10.323;;
05.01.2020 22:45;10.365;;
05.01.2020 23:00;10.371;;
05.01.2020 23:15;10.381;;
05.01.2020 23:30;10.387;;
05.01.2020 23:45;10.384;;
06.01.2020 00:00;10.336;;
06.01.2020 00:15;10.381;;
06.01.2020 00:30;10.413;;
06.01.2020 00:45;10.403;;
06.01.2020 01:00;10.367;;
06.01.2020 01:15;10.383;;
06.01.2020 01:30;10.381;;
06.01.2020 01:45;10.383;;
06.01.2020 02:00;10.358;;
06.01.2020 02:15;10.370;;
06.01.2020 02:30;10.370;;
06.01.2020 02:45;10.381;;
06.01.2020 03:00;10.300;;
06.01.2020 03:15;10.324;;
06.01.2020 03:30;10.337;;
06.01.2020 03:45;10.334;;
06.01.2020 04:00;10.318;;
06.01.2020 04:15;10.318;;
06.01.2020 04:30;10.319;;
06.01.2020 04:45;10.324;;
06.01.2020 05:00;10.329;;
06.01.2020 05:15;10.333;;
06.01.2020 05:30;10.351;;
06.01.2020 05:45;10.350;;
06.01.2020 06:00;10.298;;
06.01.2020 06:15;10.309;;
06.01.2020 06:30;10.310;;
06.01.2020 06:45;10.337;;
06.01.2020 07:00;10.308;;
06.01.2020 07:15;10.315;;
06.01.2020 07:30;10.320;;
06.01.2020 07:45;10.337;;
06.01.2020 08:00;10.307;;
06.01.2020 08:15;8.985;;
06.01.2020 08:30;8.348;;
06.01.2020 08:45;8.370;;
06.01.2020 09:00;8.347;;
06.01.2020 09:15;8.416;;
06.01.2020 09:30;8.442;;
06.01.2020 09:45;8.495;;
06.01.2020 10:00;8.528;;
06.01.2020 10:15;8.589;;
06.01.2020 10:30;8.602;;
06.01.2020 10:45;8.654;;
06.01.2020 11:00;8.684;;
06.01.2020 11:15;8.751;;
06.01.2020 11:30;8.783;;
06.01.2020 11:45;8.778;;
06.01.2020 12:00;8.964;;
06.01.2020 12:15;9.962;;
06.01.2020 12:30;9.472;;
06.01.2020 12:45;10.854;;
06.01.2020 13:00;11.143;;
06.01.2020 13:15;11.482;;
06.01.2020 13:30;11.204;;
06.01.2020 13:45;12.348;;
06.01.2020 14:00;13.043;;
06.01.2020 14:15;12.337;;
06.01.2020 14:30;11.662;;
06.01.2020 14:45;10.034;;
06.01.2020 15:00;8.939;;
06.01.2020 15:15;8.739;;
06.01.2020 15:30;8.511;;
06.01.2020 15:45;8.301;;
06.01.2020 16:00;8.121;;
06.01.2020 16:15;9.746;;
06.01.2020 16:30;9.882;;
06.01.2020 16:45;9.864;;
06.01.2020 17:00;9.838;;
06.01.2020 17:15;9.795;;
06.01.2020 17:30;9.825;;
06.01.2020 17:45;10.027;;
06.01.2020 18:00;10.022;;
06.01.2020 18:15;10.254;;
06.01.2020 18:30;10.278;;
06.01.2020 18:45;10.283;;
06.01.2020 19:00;10.270;;
06.01.2020 19:15;10.281;;
06.01.2020 19:30;10.290;;
06.01.2020 19:45;10.297;;
06.01.2020 20:00;10.283;;
06.01.2020 20:15;10.294;;
06.01.2020 20:30;10.282;;
06.01.2020 20:45;10.318;;
06.01.2020 21:00;10.277;;
06.01.2020 21:15;10.288;;
06.01.2020 21:30;10.295;;
06.01.2020 21:45;10.315;;
06.01.2020 22:00;10.292;;
06.01.2020 22:15;10.292;;
06.01.2020 22:30;10.325;;
06.01.2020 22:45;10.334;;
06.01.2020 23:00;10.310;;
06.01.2020 23:15;10.319;;
06.01.2020 23:30;10.311;;
06.01.2020 23:45;10.332;;
07.01.2020 00:00;10.334;;
07.01.2020 00:15;10.377;;
07.01.2020 00:30;10.416;;
07.01.2020 00:45;10.426;;
07.01.2020 01:00;10.428;;
07.01.2020 01:15;10.406;;
07.01.2020 01:30;10.422;;
07.01.2020 01:45;10.414;;
07.01.2020 02:00;10.395;;
07.01.2020 02:15;10.401;;
07.01.2020 02:30;10.382;;
07.01.2020 02:45;10.407;;
07.01.2020 03:00;10.390;;
07.01.2020 03:15;10.379;;
07.01.2020 03:30;10.395;;
07.01.2020 03:45;10.321;;
07.01.2020 04:00;10.302;;
07.01.2020 04:15;10.286;;
07.01.2020 04:30;10.280;;
07.01.2020 04:45;10.271;;
07.01.2020 05:00;10.263;;
07.01.2020 05:15;10.255;;
07.01.2020 05:30;10.265;;
07.01.2020 05:45;10.305;;
07.01.2020 06:00;10.300;;
07.01.2020 06:15;10.296;;
07.01.2020 06:30;10.299;;
07.01.2020 06:45;10.315;;
07.01.2020 07:00;10.300;;
07.01.2020 07:15;10.291;;
07.01.2020 07:30;10.297;;
07.01.2020 07:45;10.299;;
07.01.2020 08:00;10.290;;
07.01.2020 08:15;8.506;;
07.01.2020 08:30;8.035;;
07.01.2020 08:45;8.009;;
07.01.2020 09:00;7.970;;
07.01.2020 09:15;7.896;;
07.01.2020 09:30;7.936;;
07.01.2020 09:45;7.961;;
07.01.2020 10:00;8.003;;
07.01.2020 10:15;8.178;;
07.01.2020 10:30;8.287;;
07.01.2020 10:45;8.474;;
07.01.2020 11:00;8.552;;
07.01.2020 11:15;8.705;;
07.01.2020 11:30;8.861;;
07.01.2020 11:45;10.117;;
07.01.2020 12:00;10.923;;
07.01.2020 12:15;8.581;;
07.01.2020 12:30;8.391;;
07.01.2020 12:45;8.460;;
07.01.2020 13:00;8.659;;
07.01.2020 13:15;8.656;;
07.01.2020 13:30;8.544;;
07.01.2020 13:45;8.491;;
07.01.2020 14:00;8.479;;
07.01.2020 14:15;9.319;;
07.01.2020 14:30;10.316;;
07.01.2020 14:45;10.148;;
07.01.2020 15:00;9.335;;
07.01.2020 15:15;7.987;;
07.01.2020 15:30;7.976;;
07.01.2020 15:45;7.934;;
07.01.2020 16:00;8.832;;
07.01.2020 16:15;9.872;;
07.01.2020 16:30;9.867;;
07.01.2020 16:45;9.896;;
07.01.2020 17:00;9.950;;
07.01.2020 17:15;9.992;;
07.01.2020 17:30;10.219;;
07.01.2020 17:45;10.314;;
07.01.2020 18:00;10.239;;
07.01.2020 18:15;10.304;;
07.01.2020 18:30;10.284;;
07.01.2020 18:45;10.241;;
07.01.2020 19:00;10.215;;
07.01.2020 19:15;10.235;;
07.01.2020 19:30;10.236;;
07.01.2020 19:45;10.258;;
07.01.2020 20:00;10.222;;
07.01.2020 20:15;10.232;;
07.01.2020 20:30;10.249;;
07.01.2020 20:45;10.261;;
07.01.2020 21:00;10.232;;
07.01.2020 21:15;10.249;;
07.01.2020 21:30;10.239;;
07.01.2020 21:45;10.278;;
07.01.2020 22:00;10.252;;
07.01.2020 22:15;10.286;;
07.01.2020 22:30;10.301;;
07.01.2020 22:45;10.298;;
07.01.2020 23:00;10.287;;
07.01.2020 23:15;10.302;;
07.01.2020 23:30;10.344;;
07.01.2020 23:45;10.363;;
08.01.2020 00:00;10.337;;
08.01.2020 00:15;10.324;;
08.01.2020 00:30;10.370;;
08.01.2020 00:45;10.415;;
08.01.2020 01:00;10.486;;
08.01.2020 01:15;10.500;;
08.01.2020 01:30;10.501;;
08.01.2020 01:45;10.502;;
08.01.2020 02:00;10.336;;
08.01.2020 02:15;10.339;;
08.01.2020 02:30;10.317;;
08.01.2020 02:45;10.333;;
08.01.2020 03:00;10.309;;
08.01.2020 03:15;10.303;;
08.01.2020 03:30;10.320;;
08.01.2020 03:45;10.336;;
08.01.2020 04:00;10.479;;
08.01.2020 04:15;10.433;;
08.01.2020 04:30;10.376;;
08.01.2020 04:45;10.470;;
08.01.2020 05:00;10.418;;
08.01.2020 05:15;10.446;;
08.01.2020 05:30;10.439;;
08.01.2020 05:45;10.269;;
08.01.2020 06:00;10.258;;
08.01.2020 06:15;10.266;;
08.01.2020 06:30;10.264;;
08.01.2020 06:45;10.275;;
08.01.2020 07:00;10.265;;
08.01.2020 07:15;10.264;;
08.01.2020 07:30;10.268;;
08.01.2020 07:45;10.279;;
08.01.2020 08:00;10.180;;
08.01.2020 08:15;10.083;;
08.01.2020 08:30;9.970;;
08.01.2020 08:45;10.043;;
08.01.2020 09:00;9.969;;
08.01.2020 09:15;10.202;;
08.01.2020 09:30;10.315;;
08.01.2020 09:45;10.429;;
08.01.2020 10:00;10.412;;
08.01.2020 10:15;10.390;;
08.01.2020 10:30;10.532;;
08.01.2020 10:45;10.697;;
08.01.2020 11:00;10.816;;
08.01.2020 11:15;10.908;;
08.01.2020 11:30;10.840;;
08.01.2020 11:45;10.877;;
08.01.2020 12:00;10.821;;
08.01.2020 12:15;10.865;;
08.01.2020 12:30;10.742;;
08.01.2020 12:45;10.790;;
08.01.2020 13:00;10.856;;
08.01.2020 13:15;10.872;;
08.01.2020 13:30;11.096;;
08.01.2020 13:45;10.995;;
08.01.2020 14:00;10.691;;
08.01.2020 14:15;10.678;;
08.01.2020 14:30;11.041;;
08.01.2020 14:45;11.396;;
08.01.2020 15:00;10.889;;
08.01.2020 15:15;11.119;;
08.01.2020 15:30;10.954;;
08.01.2020 15:45;10.551;;
08.01.2020 16:00;10.371;;
08.01.2020 16:15;10.327;;
08.01.2020 16:30;10.334;;
08.01.2020 16:45;10.332;;
08.01.2020 17:00;10.322;;
08.01.2020 17:15;10.333;;
08.01.2020 17:30;10.341;;
08.01.2020 17:45;10.352;;
08.01.2020 18:00;10.327;;
08.01.2020 18:15;10.310;;
08.01.2020 18:30;10.338;;
08.01.2020 18:45;10.340;;
08.01.2020 19:00;10.303;;
08.01.2020 19:15;10.311;;
08.01.2020 19:30;10.323;;
08.01.2020 19:45;10.341;;
08.01.2020 20:00;10.308;;
08.01.2020 20:15;10.338;;
08.01.2020 20:30;10.338;;
08.01.2020 20:45;10.355;;
08.01.2020 21:00;10.323;;
08.01.2020 21:15;10.318;;
08.01.2020 21:30;10.316;;
08.01.2020 21:45;10.323;;
08.01.2020 22:00;10.356;;
08.01.2020 22:15;10.322;;
08.01.2020 22:30;10.316;;
08.01.2020 22:45;10.342;;
08.01.2020 23:00;10.316;;
08.01.2020 23:15;10.331;;
08.01.2020 23:30;10.344;;
08.01.2020 23:45;10.336;;
09.01.2020 00:00;10.334;;
09.01.2020 00:15;10.367;;
09.01.2020 00:30;10.429;;
09.01.2020 00:45;10.429;;
09.01.2020 01:00;10.412;;
09.01.2020 01:15;10.401;;
09.01.2020 01:30;10.416;;
09.01.2020 01:45;10.431;;
09.01.2020 02:00;10.401;;
09.01.2020 02:15;10.399;;
09.01.2020 02:30;10.419;;
09.01.2020 02:45;10.422;;
09.01.2020 03:00;10.402;;
09.01.2020 03:15;10.409;;
09.01.2020 03:30;10.398;;
09.01.2020 03:45;10.392;;
09.01.2020 04:00;10.366;;
09.01.2020 04:15;10.359;;
09.01.2020 04:30;10.356;;
09.01.2020 04:45;10.325;;
09.01.2020 05:00;10.283;;
09.01.2020 05:15;10.301;;
09.01.2020 05:30;10.266;;
09.01.2020 05:45;10.273;;
09.01.2020 06:00;10.262;;
09.01.2020 06:15;10.256;;
09.01.2020 06:30;10.225;;
09.01.2020 06:45;10.232;;
09.01.2020 07:00;10.220;;
09.01.2020 07:15;10.221;;
09.01.2020 07:30;10.218;;
09.01.2020 07:45;10.232;;
09.01.2020 08:00;10.212;;
09.01.2020 08:15;10.213;;
09.01.2020 08:30;10.241;;
09.01.2020 08:45;10.239;;
09.01.2020 09:00;10.239;;
09.01.2020 09:15;10.246;;
09.01.2020 09:30;10.279;;
09.01.2020 09:45;10.315;;
09.01.2020 10:00;10.505;;
09.01.2020 10:15;10.613;;
09.01.2020 10:30;10.807;;
09.01.2020 10:45;10.843;;
09.01.2020 11:00;10.766;;
09.01.2020 11:15;10.850;;
09.01.2020 11:30;10.806;;
09.01.2020 11:45;10.732;;
09.01.2020 12:00;10.720;;
09.01.2020 12:15;10.862;;
09.01.2020 12:30;10.775;;
09.01.2020 12:45;9.337;;
09.01.2020 13:00;11.061;;
09.01.2020 13:15;11.174;;
09.01.2020 13:30;11.107;;
09.01.2020 13:45;9.578;;
09.01.2020 14:00;8.789;;
09.01.2020 14:15;8.862;;
09.01.2020 14:30;8.755;;
09.01.2020 14:45;8.626;;
09.01.2020 15:00;9.409;;
09.01.2020 15:15;10.475;;
09.01.2020 15:30;10.373;;
09.01.2020 15:45;10.339;;
09.01.2020 16:00;10.287;;
09.01.2020 16:15;10.260;;
09.01.2020 16:30;10.212;;
09.01.2020 16:45;10.224;;
09.01.2020 17:00;10.206;;
09.01.2020 17:15;10.212;;
09.01.2020 17:30;10.218;;
09.01.2020 17:45;10.249;;
09.01.2020 18:00;10.234;;
09.01.2020 18:15;10.249;;
09.01.2020 18:30;10.222;;
09.01.2020 18:45;10.243;;
09.01.2020 19:00;10.227;;
09.01.2020 19:15;10.207;;
09.01.2020 19:30;10.232;;
09.01.2020 19:45;10.242;;
09.01.2020 20:00;10.231;;
09.01.2020 20:15;10.223;;
09.01.2020 20:30;10.277;;
09.01.2020 20:45;10.299;;
09.01.2020 21:00;10.284;;
09.01.2020 21:15;10.292;;
09.01.2020 21:30;10.298;;
09.01.2020 21:45;10.316;;
09.01.2020 22:00;10.298;;
09.01.2020 22:15;10.315;;
09.01.2020 22:30;10.327;;
09.01.2020 22:45;10.335;;
09.01.2020 23:00;10.312;;
09.01.2020 23:15;10.331;;
09.01.2020 23:30;10.350;;
09.01.2020 23:45;10.344;;
10.01.2020 00:00;10.329;;
10.01.2020 00:15;10.349;;
10.01.2020 00:30;10.347;;
10.01.2020 00:45;10.368;;
10.01.2020 01:00;10.341;;
10.01.2020 01:15;10.362;;
10.01.2020 01:30;10.362;;
10.01.2020 01:45;10.378;;
10.01.2020 02:00;10.357;;
10.01.2020 02:15;10.374;;
10.01.2020 02:30;10.374;;
10.01.2020 02:45;10.379;;
10.01.2020 03:00;10.364;;
10.01.2020 03:15;10.375;;
10.01.2020 03:30;10.387;;
10.01.2020 03:45;10.387;;
10.01.2020 04:00;10.349;;